This demonstration page uses our WeatherBlox Daily Observations layout. Learn more.

Left ArrowRight Arrow

Hourly Observations for January 23, 2016

Temp ( °F °C ) Dew Point ( °F °C ) Humidity (%) Winds ( mph kmh ) Pressure ( in mb ) Visibility ( mi km ) Precip ( " mm )
12:05 am 00:05 Cloudy with Mist and Fog 23 -5 19 -7.2 85 85 SSE 6 9 30.39 1029 6 10 0.00 0.00
12:54 am 00:54 Cloudy with Mist and Fog 23 -5 20 -6.7 88 88 SSE 8 13 30.35 1028 6 10 0.00 0.00
1:54 am 01:54 Cloudy with Mist and Fog 22 -5.6 20 -6.7 92 92 S 8 13 30.33 1027 5 8 0.00 0.00
2:54 am 02:54 Cloudy with Mist and Fog 22 -5.6 20 -6.7 92 92 S 9 15 30.32 1027 5 8 0.00 0.00
3:21 am 03:21 Cloudy with Mist and Fog 22 -5.6 20 -6.7 92 92 S 9 15 30.36 1028 5 8 0.00 0.00
3:54 am 03:54 Cloudy with Mist and Fog 22 -5.6 20 -6.7 92 92 S 8 13 30.29 1026 5 8 0.00 0.00
4:54 am 04:54 Cloudy with Mist and Fog 23 -5 20 -6.7 88 88 S 10 17 30.26 1025 4 6 0.00 0.00
5:54 am 05:54 Cloudy with Mist and Fog 23 -5 20 -6.7 88 88 S 10 17 30.27 1025 6 10 0.00 0.00
6:54 am 06:54 Cloudy with Mist and Fog 23 -5 20 -6.7 88 88 SSW 14 22 30.24 1024 6 10 0.00 0.00
7:54 am 07:54 Cloudy with Mist and Fog 23 -5 20 -6.7 88 88 SSW 16 26 30.23 1024 6 10 0.00 0.00
8:54 am 08:54 Cloudy with Mist and Fog 23 -5 20 -6.7 88 88 SSW 17 28 30.23 1024 4 6 0.00 0.00
9:54 am 09:54 Cloudy with Mist and Fog 24 -4.4 21 -6.1 88 88 S 22 35 30.18 1022 4 6 0.00 0.00
10:54 am 10:54 Cloudy with Mist and Fog 25 -3.9 21 -6.1 85 85 SSW 18 30 30.19 1023 5 8 0.00 0.00
11:51 am 11:51 Cloudy 27 -3 21 -6 80 80 S 17 28 30.18 1022 7 11 0.00 0.00
11:54 am 11:54 Cloudy 26 -3.3 22 -5.6 84 84 S 16 26 30.14 1021 7 11 0.00 0.00
12:52 pm 12:52 Cloudy with Mist and Fog 27 -3 21 -6 80 80 SSW 18 30 30.15 1021 6 10 0.00 0.00
12:54 pm 12:54 Cloudy with Mist and Fog 26 -3.3 22 -5.6 84 84 S 16 26 30.11 1020 6 10 0.00 0.00
1:08 pm 13:08 Cloudy with Haze 27 -3 21 -6 80 80 SSW 16 26 30.15 1021 6 10 0.00 0.00
1:54 pm 13:54 Cloudy with Mist and Fog 27 -2.8 23 -5 85 85 S 17 28 30.05 1018 6 10 0.00 0.00
2:52 pm 14:52 Cloudy with Mist and Fog 27 -3 23 -5 86 86 SSW 16 26 30.09 1019 5 8 0.00 0.00
2:54 pm 14:54 Cloudy with Mist and Fog 27 -2.8 23 -5 85 85 SSW 17 28 30.05 1018 5 8 0.00 0.00
3:15 pm 15:15 Cloudy with Mist and Fog 27 -2.8 23 -5 85 85 SSW 16 26 30.09 1019 5 8 0.00 0.00
3:54 pm 15:54 Cloudy with Haze 28 -2.2 23 -5 81 81 SSW 17 28 30.04 1017 5 8 0.00 0.00
4:54 pm 16:54 Cloudy with Haze 28 -2.2 23 -5 81 81 SSW 12 19 30.04 1017 6 10 0.00 0.00
5:54 pm 17:54 Cloudy 28 -2.2 24 -4.4 85 85 SSW 15 24 30.02 1017 7 11 0.00 0.00
6:54 pm 18:54 Cloudy 28 -2.2 24 -4.4 85 85 SW 13 20 30.03 1017 7 11 0.00 0.00
7:54 pm 19:54 Cloudy 29 -1.7 24 -4.4 82 82 SW 13 20 30.04 1017 7 11 0.00 0.00
8:54 pm 20:54 Cloudy 29 -1.7 25 -3.9 85 85 SSW 9 15 30.02 1017 7 11 0.00 0.00
9:54 pm 21:54 Cloudy 30 -1.1 25 -3.9 82 82 SSW 13 20 29.99 1016 7 11 0.00 0.00
10:54 pm 22:54 Mostly Clear with Mist and Fog 28 -2.2 24 -4.4 85 85 SSW 7 11 29.99 1016 6 10 0.00 0.00
11:54 pm 23:54 Clear with Mist and Fog 25 -3.9 22 -5.6 88 88 S 3 6 29.98 1015 6 10 0.00 0.00

Powered by AerisWeather